[Date Prev][Date Next][Thread Prev][Thread Next][Date Index][Thread Index]

[jamsat-news:1038] jas2info #120



=========================   最新情報   ==============================

        Last updated :Mon.1-Mar.-1999 15:00 (JST) #120

====================================================================
   
     衛星情報 FOシリーズの軌道要素、テレメトリ、QSOの状況等を
   まとめてみました.

  1)FO−29(ふじ3号)は3月1日 (月)の14:16(JST)からの
     パスではJAアナログから16:21(JST)よりFMのデジトーカで
     運用され郭公の泣き声とと女性の声で「This is JAS−2」と力強い信号
     RS59+50dBで安定して聞こえました.
     周波数は435.915より.905MHzにドップラ偏移しておりました. 
     ハンディ機でも充分受信できる強力な信号でした.
    
 ■ 軌道要素1:「jamsatーkeps:865」より
                 SB KEPS @ AMSAT  $ORB99057.N
                 2Line Orbital Elements 99057.AMSAT

  HR AMSAT ORBITAL ELEMENTS FOR AMATEUR SATELLITES IN NASA FORMAT
  FROM WA5QGD FORT WORTH,TX February 26, 1999
  SEND SUBSCRIBE/UNSUBSCRIBE TO majordomo@amsat.org ONLY
  BID: ORB99057.N
   
  DECODE 2-LINE ELSETS WITH THE FOLLOWING KEY:
  1 AAAAAU 00  0  0 BBBBB.BBBBBBBB  .CCCCCCCC  00000-0  00000-0 0  DDDZ
  2 AAAAA EEE.EEEE FFF.FFFF GGGGGGG HHH.HHHH III.IIII JJ.JJJJJJJJKKKKKZ
  KEY: A-CATALOGNUM B-EPOCHTIME C-DECAY D-ELSETNUM E-INCLINATION F-RAAN
  G-ECCENTRICITY H-ARGPERIGEE I-MNANOM J-MNMOTION K-ORBITNUM Z-CHECKSUM

  TO ALL RADIO AMATEURS BT

 FO-29
  1 24278U 96046B   99055.92814742  .00000149  00000-0  18788-3 0 02287
  2 24278 098.5440 022.1486 0351851 024.9952 336.7775 13.52661141124636
 
 ■ 軌道要素2:「jamsatーkeps:866」より
                 SB KEPS @ AMSAT  $ORB99057.O
                 Orbital Elements  99057.OSCAR

  HR AMSAT ORBITAL ELEMENTS FOR OSCAR SATELLITES
  FROM WA5QGD FORT WORTH,TX February 26, 1999
  SEND SUBSCRIBE/UNSUBSCRIBE TO majordomo@amsat.org ONLY
  BID: ORB99057.O
  TO ALL RADIO AMATEURS BT

  Satellite: FO-29
  Catalog number: 24278
  Epoch time:      99055.92814742
  Element set:    0228
  Inclination:      098.5440 deg
  RA of node:       022.1486 deg
  Eccentricity:    0.0351851
  Arg of perigee:   024.9952 deg
  Mean anomaly:     336.7775 deg
  Mean motion:   13.52661141 rev/day
  Decay rate:       1.49e-06 rev/day^2
  Epoch rev:           12463
  Checksum:              326
 -----------------------------------------------------------
 2)FO−29(ふじ3号)の 3月1日(月)のFMデジカートとなる前の
    JAアナログテレメトリの一部分は次のようになっていました.
 
  AS12521C1   1Mar99
  JST 14:16 - 14:21
                                                                 AD AA AC AB 
  HI HI A6 C7 90 DD 09 45 10 0D 00 00 4C 9E 76 61 96 93 B0 78 AC A9 AB AC AB 
  HI HI E6 C7 90 DD 0E 45 10 0D 00 00 88 9D 7D 61 97 93 B0 8F AC A9 AB AC AB 
 
3)  JAアナログテレメトリの最後の一行の換算例.

   テレメトリ	内   容	     換算値   単 位
 3C	磁気センサーZ軸	=	66666.6	nT
 3D	磁気センサX軸	=	76960.8	nT
 4A	太陽電池発生電流	=	 1225.5	mA
 4B	B充放電電流	=	  -98.8	mA
 4C	B端子電圧	=	   16.2	V
 4D	B中間端子電圧	=	    7.1	V
 5A	バス電圧 	=	   17.3	V
 5B	JTA送信電力	=	  831.4	mW
 5C 	構体温度1	=	   15.1	℃
 5D	構体温度2	=	   16.2	℃
 6A	構体温度3	=	   15.5	℃
 6B	構体温度4	=	   15.1	℃
 6C	Bセル温度	=	   15.5	℃
  
 *計算処理は OFFICE 97 を使用. 
===============================================================================
  4)FO−20(ふじ2号)のCWテレメトリは1月30日(土)19:37(JST)の
     パスではやはり単一トーンの連続音から唸りを伴った連続音になっいましたがQSOは
     通常どうり使え、JA7CIA局等のCQが聞こえました.
---------------------------------------------------------------------------

 ■ 軌道要素1 :出典は「ふじ3号」に同じ.
 
  FO-20
  1 20480U 90013C   99056.14586021 -.00000031  00000-0 -39019-5 0 01426
  2 20480 099.0360 272.1476 0540991 058.5489 306.7336 12.83249478423969

 ■ 軌道要素2 :出典は「ふじ3号」に同じ.  
               
  Satellite: FO-20
   Catalog number: 20480
  Epoch time:      99056.14586021
  Element set:    0142
  Inclination:      099.0360 deg
  RA of node:       272.1476 deg
  Eccentricity:    0.0540991
  Arg of perigee:   058.5489 deg
  Mean anomaly:     306.7336 deg
  Mean motion:   12.83249478 rev/day
  Decay rate:       -3.1e-07 rev/day^2
  Epoch rev:           42396
  Checksum:              318
   277

  ====================    FO-20のQSOの状況 ==========================
  =====================================================================
 5)JARL のホームページに新しい運用の予定が記載されていましたのでご紹介します.

        ■ ふじ3号/FO−29 ■  
  
  ふじ3号(JAS−2) 運用予定 

  ☆☆デジトーカ運用を3月19日〜23日に運用再開☆☆ 

  運用日程について     

  ☆2月21日 〜 2月24日     デジトーカ運用(:FM音声メッセージ送信) 
   2月22日 〜 3月 8日     アナログ系運用
   3月 8日 〜 3月18日     デジタル系1200bps運用
  ☆ 3月19日 〜 3月23日     デジトーカ運用(:FM音声メッセージ送信)
   3月23日 〜 3月30日     アナログ系運用

  運用予定の変更について    

  ☆:2月21日から24日までデジトーカ運用を行う予定でしたが音声データのUPは2月19日(金)
  18時の時点完了しましたが音声データの送信がされず,現在,原因の調査を実施している作業
  を行っています。
   また,デジトーカ運用は3月19日(金)から23日(月)を予定しています。
.
 連絡先 : lab@jarl.or.jp

 最新の情報はテレホンサービス(:03−3942−1000),インターネットでご覧下さい。
 なお,番号をかけ間違わないように宜しくお願い申し上げます。
  
  以後の運用に付きましては2月24日18時頃にお知らせいたします。

        ■ ふじ2号/FO−20 ■      
            「ふじ2号」 現況                                                                                               
   JAS-1b/FO-20(ふじ2号)の不具合発生について
    JAS-1b(ふじ2号)のCWテレメトリ信号に,1997年10月12日12時
 (JST)の日本上空通過時,3桁の数字が繰り返されるはずが3個の長音の
  繰り返しとなっているという異常が発見されました。この不具合は次の通過時
  からは回復していましたが13日15時20分の通過時に再び観測されました。
  衛星のアナログ系中継モード動作は異常が無く,正常時のテレメトリ内容からは
  衛星の動作に異常は認められません。従って,直ちに衛星のミッションに影響す
  ることは無いと予想されますので,当面はアナログ系中継モードを継続します。
  衛星は既に打ち上げてから7年8ヶ月を経ておりますので,今後は監視を強化す
  る予定です。アマチュア各位のレポートをお待ちします.   
  
  以上  http://www.jarl.or.jp/Japanese/3_Fuji/jr1nvu.htm  より.
                                           
   =============   JAS-2 (ふじ3号)と現在までの情報   ===========  
  A.電話によるふじ3号の運用情報
      社団法人日本アマチュア連盟によるサービス
           TEL .   03− 3942 − 1000
  B.アマチュア無線FAXサービス
      JARLによるふじ3号の軌道情報(オービットカレンダー)
         FAX No.  03− 3233 −0055
  C.WWWブラウザで情報を簡単に見れる人のためにJAS−2
     ふじ3号の衛星としての運用されるまでの名前)の概要、打ち上げ
     までの状況、運用中における状況を説明したホームページを紹介し
     ておきます.
    1)社団法人日本アマチュア無線連盟(JARL)のホームページ

          http://www.jarl.or.jp/Japanese/3_Fuji/jr1nvu.htm
 
    2)宇宙開発事業団(NASDA)ホームページ 
          http://www.nasda.go.jp/
         打上げ衛星 :地球観測プラットフォーム技術衛星(ADEOS) 
                       アマチュア衛星3号(JAS-2)
          http://yyy.tksc.nasda.go.jp/Home/Press/Press-j/jas-2_j.html        

  D.JAMSATによる軌道情報の活用
        JAMSATのホームページまたはjamsat−kepsの軌道要素より
      衛星の軌道情報を得る.
     JAMSATホームページ
               URL    http://www.jamsat.or.jp
       上記ホームページでは各地で行われるアマチュア通信衛星に関する
      ミューティングのお知らせや世界のアマチュア衛星に関する情報が
      満載されています.
   
 =========================================================================
       JAMSATのメンバーのご協力によりJH6MME(高山 秀造)が
    執筆・編集を担当しております.ご指摘の意見、疑問やこのようにしたら
    というアイデアがありましたら小さなことでもかまいませんので気軽に下
    記アドレスまでご連絡ください.jamsat−newsからjas2
    infoへの転載をJH4PHW局坂井さんに担当して頂いております.
                    Eーmail : jh6mme@jamsat.or.jp : jh4phw@jamsat.or.jp
 ===============================   END  ===============================